Regional Weather Roundup
Issued by NWS Upton, NY

Current Version | Previous Version | Text Only | Print | Product List | Glossary On
Versions: 1 2 3 4 5 6 7 8 9 10 11 12 13 14 15 16 17 18 19 20 21 22 23 24 25 26
000
ASUS41 KOKX 180505
RWROKX

REGIONAL WEATHER ROUNDUP
NATIONAL WEATHER SERVICE NEW YORK NY
100 AM EDT FRI APR 18 2014

NOTE: "FAIR" INDICATES FEW OR NO CLOUDS BELOW 12,000 FEET WITH NO
SIGNIFICANT WEATHER AND/OR OBSTRUCTIONS TO VISIBILITY.

NYZ071-072-176-178-NJZ106-104-180600-
NEW YORK CITY METRO AREA


CITY           SKY/WX    TMP DP  RH WIND       PRES   REMARKS
CENTRAL PARK   CLEAR     38  27  64 E8        30.63S WCI  32
LAGUARDIA APRT MOCLDY    38  26  62 E6        30.61S WCI  33
KENNEDY INTL   PTCLDY    38  27  64 NE7       30.62S WCI  33
NEWARK/LIBERTY PTCLDY    40  26  57 E8        30.61S WCI  34
TETERBORO      CLEAR     40  26  57 E5        30.61S
$$

NYZ177-179-078>081-180600-
LONG ISLAND NEW YORK

CITY           SKY/WX    TMP DP  RH WIND       PRES   REMARKS
FARMINGDALE    CLEAR     34  28  79 NE3       30.60S
ISLIP          CLEAR     35  27  72 NE5       30.58S WCI  31
SHIRLEY        CLEAR     35  27  72 VRB3      30.60F
WESTHAMPTON    MOCLDY    35  26  69 NE9       30.60F WCI  28
MONTAUK POINT    N/A     37  29  72 NE12G18   30.59F WCI  29
$$

NYZ052-065-067-180600-
HUDSON VALLEY

CITY           SKY/WX    TMP DP  RH WIND       PRES   REMARKS
WHITE PLAINS   CLEAR     36  27  69 E3        30.59R
NEWBURGH       NOT AVBL
MONTGOMERY     CLEAR     31  24  75 CALM      30.59F
POUGHKEEPSIE   CLEAR     33  27  78 CALM      30.60F
ALBANY         CLEAR     38  20  48 SE9       30.60F WCI  31
$$

NJZ001-105-106-008-010-013-015-019>022-104-180600-
NEW JERSEY

CITY           SKY/WX    TMP DP  RH WIND       PRES   REMARKS
NEWARK/LIBERTY PTCLDY    40  26  57 E8        30.61S WCI  34
TETERBORO      CLEAR     40  26  57 E5        30.61S
CALDWELL       CLEAR     35  31  85 CALM      30.61S
MORRISTOWN     CLEAR     36  32  87 CALM      30.61S
SOMERVILLE     CLEAR     34  30  85 CALM      30.59S
LINDEN         MOCLDY    41  32  70 SE7       30.63S
SUSSEX         CLOUDY    35  30  82 CALM      30.59S
ANDOVER          N/A     36  31  82 CALM      30.59R
TRENTON        CLOUDY    37  30  75 CALM      30.59F
MILLVILLE      CLOUDY    39  31  72 NE5       30.60R
ATLANTIC CITY  CLOUDY    39  31  72 E8        30.60R WCI  33
WRIGHTSTOWN    CLOUDY    37  31  79 NE3       30.58S
TOMS RIVER     CLOUDY    39  28  65 CALM      30.60S
BELMAR         CLOUDY    39  27  60 E10       30.59S WCI  32
$$

PAZ047>061-062-071-180600-
EASTERN PENNSYLVANIA

CITY           SKY/WX    TMP DP  RH WIND       PRES   REMARKS
PHILADELPHIA   CLOUDY    40  28  62 E9        30.63R WCI  34
ALLENTOWN      MOCLDY    37  29  72 SE7       30.61R WCI  32
SCRANTON       CLEAR     35  25  66 S7        30.55R WCI  29
$$

CTZ002-004>006-009-010-012-RIZ004-006-007-MAZ004-011-015-180600-
SOUTHERN NEW ENGLAND
 IN CT

CITY           SKY/WX    TMP DP  RH WIND       PRES   REMARKS
BRADLEY INTL   CLEAR     31  23  72 N6        30.62F WCI  25
HARTFORD       CLEAR     33  24  69 N3        30.63F
DANBURY        CLEAR     31  28  89 CALM      30.61S
WTRBRY/OXFORD  CLEAR     32  21  64 E5        30.61S WCI  27
BRIDGEPORT     CLEAR     38  26  62 NE13      30.61S WCI  30
MERIDEN        CLEAR     33  24  69 NE3       30.62S
NEW HAVEN      CLEAR     34  24  67 NE3       30.61F
CHESTER        FAIR      32  27  80 NE6       30.60F WCI  26
GROTON         CLEAR     33  26  75 NE9       30.60F WCI  25
WILLIMANTIC    CLEAR     32  25  75 NE6       30.62F WCI  26

 IN RI

CITY           SKY/WX    TMP DP  RH WIND       PRES   REMARKS
PROVIDENCE     CLEAR     32  25  75 NE8       30.63F WCI  25
BLOCK ISLAND   PTCLDY    36  28  75 NE12G21   30.57F WCI  27
WESTERLY       CLEAR     32  26  78 NE6       30.60F WCI  26

 IN MA

CITY           SKY/WX    TMP DP  RH WIND       PRES   REMARKS
BOSTON         PTCLDY    35  27  72 NE12      30.65F WCI  27
WORCESTER      CLEAR     28  23  81 NE7       30.59F WCI  21
WESTFIELD      CLEAR     30  23  75 N6        30.63F WCI  24
PROVINCETOWN   PTCLDY    36  27  69 MISG      30.63F
NANTUCKET      PTCLDY    37  27  67 NE9       30.59F WCI  30
$$

ANZ330-335-338-340-345-350-353-355-180600-
COASTAL MARINE OBSERVATIONS


STATION/POSITION TIME  SKY/WX   TEMP    WIND        PRES    VSBY  WAVE
                                AIR SEA DIR/SP/G                  HT/PER
                 (UTC)          (F)     (DEG/KT/KT) (MB)    (MI)  (FT/S)
NY HARB ENTRANCE 0500            40 42   20/ 16/ 17 1035.6
4S FIRE IS       0400               44                N/A           7/ 8
23SW MTP         0500            38 42   70/ 21/ 25 1034.2          8/ 6
HUDSON CANYON    0400            40 44   60/ 21/ 25 1033.5         10/ 9
EXECUTION ROCKS  0500            38 42  100/  8/ 10   N/A
WESTERN LI SOUND 0500            40      90/ 16/ 21   N/A           2/ 4
CENTRAL LI SOUND 0500            37 42   80/ 17/ 21   N/A           3/ 4
EASTERN LI SOUND NOT AVBL
ROBBINS REEF     0500            39      80/ 11/ 13   N/A
$$


>>>>>>>>>>>>>>>>>>>>>>>>>>>> KEY <<<<<<<<<<<<<<<<<<<<<<<<<<<
>                                                          <
>     SKY/WX - SKY CONDITION/PRESENT WEATHER               <
>     TMP    - TEMPERATURE IN FAHRENHEIT                   <
>     DP     - DEWPOINT IN FAHRENHEIT                      <
>     RH     - RELATIVE HUMIDITY IN PERCENT                <
>     WIND   - DIRECTION AND SPEED IN MPH                  <
>     PRES   - MEAN SEA LEVEL PRESSURE IN INCHES OF HG     <
>     WCI    - WIND CHILL INDEX                            <
>     VSB    - VISIBILITY IN MILES                         <
>     HX     - HEAT INDEX                                  <
>     TC     - TEMPERATURE IN CELSIUS                      <
>     VRB    - VARIABLE WIND DIRECTION                     <
>                                                          <
>>>>>>>>>>>>>>>>>>>>>>>>>>>> KEY <<<<<<<<<<<<<<<<<<<<<<<<<<<





USA.gov is the U.S. government's official web portal to all federal, state and local government web resources and services.